533  
ASUS45 KREV 210610  
RWRNV  
NEVADA REGIONAL WEATHER ROUNDUP  
NATIONAL WEATHER SERVICE RENO NV  
1100 PM PDT FRI SEP 20 2019  
 
NOTE: "FAIR" INDICATES FEW OR NO CLOUDS BELOW 12,000 FEET WITH NO  
SIGNIFICANT WEATHER AND/OR S TO VISIBILITY
.  
 
NVZ001-003-004-210700-  
WESTERN NEVADA  
 
CITY SKY/WX TMP DP RH WIND PRES REMARKS
 
RENO PTCLDY 54 34 46 W5 30.14R  
6HR MIN TEMP: 54; 6HR MAX TEMP: 68;  
 
CARSON CITY CLOUDY 52 30 43 E3 30.13S  
MINDEN FAIR 43 30 61 E6 30.15R  
SLIDE MTN N/A 34 30 86 NE14 N/A  
FALLON PTCLDY 47 32 56 E7 30.10R  
6HR MIN TEMP: 47; 6HR MAX TEMP: 68;  
 
LOVELOCK CLOUDY 56 37 49 E3 30.10S  
6HR MIN TEMP: 56; 6HR MAX TEMP: 67;  
 
HAWTHORNE CLEAR 57 30 35 N7 30.11R  

 
 
NVZ002-CAZ072-073-210700-  
NORTHERN AND CENTRAL SIERRA  
 
CITY SKY/WX TMP DP RH WIND PRES REMARKS
 
S. LAKE TAHOE CLEAR 42 35 76 SW5 30.16R  
6HR MIN TEMP: 42; 6HR MAX TEMP: 60;  
 
TRUCKEE CLEAR 36 34 93 SE3 30.17S  
SQUAW VLY 8000 N/A 37 32 81 NE2 N/A  
BLUE CANYON CLEAR 53 33 46 NE8 30.10F  
MAMMOTH LAKES FAIR 46 25 43 W10 30.18S  
6HR MIN TEMP: 41; 6HR MAX TEMP: 64;  
 
BRIDGEPORT N/A 34 28 80 SW2 N/A  

 
 
NVZ030-031-036-210700-  
NORTHERN NEVADA  
 
CITY SKY/WX TMP DP RH WIND PRES REMARKS
 
ELKO CLEAR 43 38 82 CALM 30.13S  
6HR MIN TEMP: 43; 6HR MAX TEMP: 57;  
 
WINNEMUCCA CLOUDY 53 38 56 NW5 30.12S  
6HR MIN TEMP: 53; 6HR MAX TEMP: 60;  
 
BATTLE MOUNTAI CLEAR 41 36 81 SE6 30.13R  
WENDOVER PTCLDY 51 35 54 W3 30.11S  

 
 
NVZ035-037-210700-  
CENTRAL NEVADA  
 
CITY SKY/WX TMP DP RH WIND PRES REMARKS
 
ELY CLEAR 30 20 66 S9 30.16R  
6HR MIN TEMP: 29; 6HR MAX TEMP: 56;  
 
EUREKA N/A 34 28 79 S7 30.15S  
6HR MIN TEMP: 31; 6HR MAX TEMP: 56;  
 

 
 
NVZ013-014-210700-  
SOUTH CENTRAL NEVADA  
 
CITY SKY/WX TMP DP RH WIND PRES REMARKS
 
TONOPAH MOCLDY 54 24 31 N7 30.10R  
6HR MIN TEMP: 53; 6HR MAX TEMP: 67;  
 

 
 
NVZ017-020-022-210700-  
SOUTHERN NEVADA  
 
CITY SKY/WX TMP DP RH WIND PRES REMARKS
 
LAS VEGAS CLEAR 74 25 16 W6 29.90R  
6HR MIN TEMP: 73; 6HR MAX TEMP: 83;  
 
N. LAS VEGAS CLEAR 72 25 17 W5 29.91S  
6HR MIN TEMP: 71; 6HR MAX TEMP: 83;  
 
NELLIS AFB CLEAR 69 23 17 N5 29.89  
6HR MIN TEMP: 68; 6HR MAX TEMP: 83;  
 
HENDERSON CLEAR 66 28 24 S7 29.95R  
6HR MIN TEMP: 66; 6HR MAX TEMP: 81;  
 
MERCURY CLEAR 63 22 20 NE8 29.97R  
6HR MIN TEMP: 61; 6HR MAX TEMP: 79;  
 

 
 
 
CLICK HERE TO GO TO PREVIOUS BULLETINS.

The Nexlab NV Page Main Text Page